Showing default

KINEIS-4B, 63304

Orbit data source: Space-Track

KINEIS-4B, 63304 is a French payload satellite in SSO that was launched on Tue, 18 Mar 2025 UTC via an ELECTRON launch vehicle from the Rocket Lab Launch Complex (RLLC). Payload-class satellites include a variety of spacecraft equipped with specific instruments for various scientific and technological missions. These include communications satellites like Starlink; space stations such as the ISS; scientific satellites like the Hubble; Earth observation satellites from companies like Planet Labs, Umbra, and HawkEye 360; GPS; miniature CubeSats for education and research; and military/defense satellites.

Loading next visibility...
Identifier
63304, 2025-056E
Orbit
SSO
Country
Flag of FRFR
Related business
Manufacturer
KINEIS
Mission
Operational Commercial Communications
Bus & Motor
CUBESAT 16U, Unknown motor
Mass
28 kg wet, 28 kg dry
Launch date (UTC)
2025-03-18 (8 months ago)
Launch vehicle
ELECTRON
Launch site
Rocket Lab Launch Complex (RLLC)
Object type
Payload
Rocket body
Debris
Shape & HBR
Box + 2 Pan + 1 Ant, 1.0 m
Radar Cross Section
0.229 m², Medium (>0.1 m² and < 1m²)

Expand to show TLE details & history
Last TLE update: 16 hours ago

TLE from 16 hours ago
0 KINEIS-4B
1 63304U 25056E   25312.81703531  .00004292  00000-0  68558-3 0  9997
2 63304  97.9997  76.1453 0001769 237.3711 122.7325 14.72370967 34691
Epoch: 2025-11-08T19:36Z
TLE epoch observation values (Epoch: 2025-11-08T19:36:31.850Z)
Latitude
-0.00013°
Longitude
93.7714°
Altitude
657.19 km
Speed
7.528 km/s
True Right ascension
05h 04m 34s
True Declination
0° 00' 00"
Sunlit
Object was in full shadow at epoch
Visualization orbit readout
Latitude
Unknown
Longitude
Unknown
Altitude
Unknown
Speed
Unknown
Apparent Right ascension
Unknown
Apparent Declination
Unknown
Sunlit
N/A
Visualization observer readout
Local Sidereal Time
08:02:09
Azimuth
Unknown
Elevation
Unknown
Doppler factor
Unknown
Orbital elements
Apogee altitude
651.808 km
Perigee altitude
649.321 km
Semi-major axis
7,028.702 km
Eccentricity
0.00018
Inclination
97.9997°
RAAN
76.1453°
Arg. of periapsis
237.3711°
True anomaly
122.74955°
Mean anomaly
122.7325°
Eccentric anomaly
122.74103°
Mean motion
3.68324 °/min
Orbital period
97.74 mins
BSTAR
0.00068558
Loading maneuver chart data...
Computing Atmospheric mass density...
Loading historical data...
Loading historical data...
Loading historical data...
Loading historical data...
Loading historical data...
Loading historical data...
Loading historical data...

Documentation

Showing up to 5 results
|